Location: Bauerbach
(50.4985°N, 10.3912°E)
Time: 15:00:26
(UTC+00:00)

ATLAS CENTAUR R/B - Pass Details

Date: 13 January 2026
Orbit: 313 x 359 km, 64.6° (Epoch: 10 February)

Event Time Altitude Azimuth Distance (km) Brightness Sun altitude
Exits shadow 06:20:55 11° 304° (WNW) 1,338 2.6 -8.3°
Maximum altitude 06:23:38 36° 237° (WSW) 617 1.3 -7.9°
Drops below altitude 10° 06:26:25 10° 168° (SSE) 1,359 3.9 -7.5°
Sets 06:28:27 0° 160° (SSE) 2,181 5.2 -7.2°
